User: anonymous   Login
Location: Unspecified
(0.0000°N, 0.0000°E)
Time: 10:14:17
(UTC+00:00)
Language:

COSMOS-2408 - Orbit

View from above orbital plane
View from above orbital plane
View from above satellite
View from above satellite

Ground track
Ground track

The orbit data is extracted from the following two-line orbital elements,

1 28419U 04037A   17080.86023557 -.00000007 +00000-0 -11901-3 0  9994
2 28419 082.4809 279.4984 0016568 103.1955 257.0974 12.45606783567969
Epoch (UTC): 21 March 2017 20:38:44
Eccentricity: 0.0016568
inclination: 82.4809°
perigee height: 1470 km
apogee height: 1496 km
right ascension of ascending node: 279.4984°
argument of perigee: 103.1955°
revolutions per day: 12.45606783
mean anomaly at epoch: 257.0974°
orbit number at epoch: 56796

The dashed part of the orbit path shows where the satellite is in the earth's shadow,  

DLR